Temperature
6 6 6 6 6 6 5 5 5 5 5 6 7 7 7 7 7 7 7 7 7 8 7 7 7 7 7 7 7 7 7 7 7 7 7 7 7 7
5 5 5 5 5 5 5 5 5 4 4 5 6 6 6 7 7 7 7 7 7 7 7 7 7 7 7 7 7 7 7 7 7 7 7 7 7 7
4 4 5 5 4 4 4 4 4 4 4 5 5 5 6 6 6 6 6 6 7 7 6 6 7 7 6 6 6 6 6 6 6 6 6 6 6 6
4 4 4 4 4 4 4 4 4 4 4 4 4 5 5 5 5 5 6 6 6 6 6 6 6 6 6 6 6 6 6 6 6 6 6 6 6 5
3 3 3 3 3 3 3 3 3 3 3 3 3 4 4 5 5 5 5 5 5 5 5 5 5 5 6 6 5 5 5 5 5 5 5 5 5 5
3 3 3 3 3 3 3 3 3 3 3 3 3 3 3 4 4 4 4 5 5 5 5 5 5 5 5 5 5 5 5 4 4 4 5 5 5 5
3 3 3 2 2 2 2 2 2 2 2 2 2 2 3 3 3 3 3 4 4 4 4 5 4 4 4 4 4 4 4 4 4 4 4 4 4 4
2 2 2 2 2 2 2 2 1 1 1 2 2 2 2 2 2 2 2 3 3 3 3 4 4 4 4 4 4 4 3 3 3 3 4 4 4 4
1 1 1 2 1 1 1 1 1 1 1 1 1 2 2 2 2 2 2 2 2 3 3 3 3 3 3 3 3 3 3 3 3 3 3 3 3 3
1 1 1 1 1 1 1 1 1 1 1 1 1 1 1 2 1 2 2 2 2 2 2 2 2 2 3 3 2 2 2 2 3 3 3 3 3 3
0 0 0 0 0 0 0 0 1 1 1 1 1 1 1 1 1 1 1 1 1 2 1 1 2 2 2 2 2 2 2 2 2 2 2 2 2 2
-0 -0 -0 -1 -0 -0 -0 -0 0 0 0 1 1 1 1 1 1 1 1 1 1 0 1 1 1 0 0 1 1 1 1 1 2 2 2 2 2 2
-1 -1 -1 -1 -1 -1 -1 -1 -1 -0 -0 -0 0 0 1 1 1 1 1 0 0 0 0 0 0 -0 -0 -0 0 1 1 1 1 1 1 1 1 1
-2 -2 -1 -1 -1 -1 -1 -1 -1 -1 -1 -0 -0 -0 -0 0 0 0 0 -0 -0 -0 0 -0 -0 -0 -0 -1 -1 -0 0 0 0 1 1 1 1 0
-2 -2 -2 -2 -2 -2 -2 -2 -1 -1 -1 -1 -1 -1 -1 -1 -1 -1 -0 -0 -0 -0 -0 -0 -0 -0 -1 -1 -1 -1 -1 -1 -0 -0 -0 -0 -0 -0
-3 -3 -2 -2 -2 -2 -2 -2 -2 -2 -2 -1 -1 -1 -1 -1 -1 -1 -1 -1 -1 -1 -1 -1 -1 -1 -1 -1 -1 -1 -1 -1 -1 -1 -1 -1 -1 -1
-3 -3 -3 -3 -3 -2 -2 -2 -2 -2 -2 -2 -2 -2 -2 -2 -2 -2 -2 -2 -2 -2 -2 -1 -1 -2 -2 -2 -2 -1 -1 -2 -2 -2 -2 -1 -2 -2
-3 -4 -3 -3 -3 -3 -3 -3 -3 -3 -3 -2 -2 -2 -2 -2 -2 -2 -2 -2 -2 -2 -2 -2 -2 -2 -2 -2 -2 -2 -2 -2 -2 -2 -2 -2 -2 -2
-4 -4 -4 -4 -4 -4 -4 -4 -4 -4 -3 -3 -3 -3 -3 -3 -3 -3 -3 -3 -3 -3 -3 -3 -3 -3 -3 -3 -3 -3 -3 -3 -3 -3 -3 -3 -3 -3
-4 -4 -4 -4 -4 -4 -4 -4 -4 -4 -4 -4 -4 -3 -3 -3 -3 -3 -3 -3 -3 -3 -3 -3 -3 -3 -3 -3 -4 -4 -3 -3 -3 -3 -3 -3 -3 -3
-5 -5 -5 -5 -4 -4 -4 -4 -4 -4 -4 -4 -4 -4 -4 -4 -4 -4 -4 -4 -3 -4 -4 -4 -3 -3 -3 -4 -4 -4 -4 -4 -4 -4 -3 -4 -4 -3
-5 -5 -5 -5 -5 -5 -5 -5 -5 -5 -5 -4 -4 -4 -4 -4 -4 -4 -4 -4 -4 -4 -4 -4 -4 -4 -4 -4 -4 -5 -4 -4 -4 -4 -4 -4 -4 -4
-5 -5 -5 -5 -5 -5 -5 -5 -5 -5 -5 -5 -5 -4 -4 -4 -4 -4 -4 -4 -4 -4 -5 -5 -5 -4 -4 -5 -5 -5 -5 -5 -4 -4 -4 -4 -4 -4
Wind_Speed
6 7 7 6 6 6 6 6 7 9 9 6 4 5 7 7 11 10 10 14 16 16 16 16 17 17 18 18 18 18 17 16 16 17 18 19 20 20
5 7 7 6 6 6 6 6 7 8 10 6 6 6 7 8 10 9 10 12 14 15 15 15 15 16 17 17 16 16 16 15 16 17 18 18 18 19
6 7 8 7 6 6 6 6 7 7 11 9 6 5 6 7 7 7 7 7 8 12 13 14 14 14 14 15 15 15 15 15 15 15 17 17 16 16
7 7 8 7 8 7 6 7 8 8 9 12 8 5 6 7 6 6 5 6 6 9 11 12 12 12 13 13 13 13 13 13 12 13 13 14 14 15
7 8 8 8 9 7 8 8 7 8 7 9 9 6 5 4 5 5 5 4 5 7 9 10 11 12 12 12 12 11 11 11 11 12 12 13 14 15
8 8 8 9 10 9 9 8 8 7 7 8 8 6 5 4 3 4 5 4 5 5 7 7 9 10 11 11 11 11 11 11 12 12 12 12 12 13
7 7 8 10 12 10 9 7 7 7 6 7 7 6 5 4 4 4 6 4 5 4 4 5 5 5 6 8 9 10 11 11 12 12 12 11 12 12
8 8 9 10 11 13 13 12 10 9 8 8 7 7 8 6 5 4 4 4 4 3 3 4 3 4 4 4 8 9 10 11 11 12 11 10 10 11
7 8 8 9 10 9 11 12 11 12 12 10 10 9 8 6 5 5 5 5 6 3 2 4 2 4 4 5 7 8 9 10 11 11 10 10 10 10
7 8 8 9 9 9 8 8 9 9 9 8 9 9 7 6 6 7 6 4 3 2 2 3 3 3 3 3 6 7 8 9 9 9 9 9 8 8
8 8 8 9 12 12 9 9 9 8 8 10 10 9 9 8 6 3 3 2 4 3 2 2 2 2 3 3 3 4 6 6 7 8 8 7 6 5
7 7 10 10 12 12 8 8 9 8 6 7 7 7 5 5 6 5 5 4 3 3 2 1 1 1 1 2 2 2 2 4 4 5 5 5 5 3
7 6 7 11 13 12 10 8 9 8 6 5 5 4 3 3 3 2 2 3 3 3 2 1 1 1 1 1 2 2 2 2 2 2 3 4 5 4
7 6 7 10 11 11 9 9 10 8 4 3 3 4 3 2 2 2 1 1 2 3 3 2 2 2 2 2 2 2 2 2 2 2 2 2 3 4
6 8 10 10 10 7 8 9 7 4 3 3 3 3 3 2 1 0 1 1 2 2 1 1 1 2 1 2 2 1 2 2 2 1 1 1 1 2
5 7 9 9 7 7 7 6 4 3 3 3 3 2 2 1 1 1 0 1 2 2 3 3 1 1 1 1 1 1 1 1 2 2 2 2 1 1
5 3 3 4 4 4 4 4 3 3 3 2 2 2 1 1 1 0 0 0 1 0 2 3 4 3 2 1 0 1 0 1 1 2 2 2 2 2
5 3 3 4 4 4 4 4 3 3 3 2 2 1 1 1 0 1 1 1 1 1 0 0 1 2 2 3 2 1 0 1 1 1 1 1 3 3
3 3 4 4 4 3 3 3 3 3 3 2 2 2 1 0 0 1 1 1 1 1 0 0 0 1 1 2 3 3 1 1 1 1 1 1 2 3
3 3 4 4 4 3 3 3 3 3 3 2 2 2 1 0 0 0 1 1 2 1 1 1 1 0 1 1 1 2 3 1 1 1 2 2 2 3
4 4 4 4 3 3 3 3 3 3 3 2 2 2 1 0 0 0 1 2 2 1 1 1 1 1 1 2 2 2 2 3 2 1 1 1 2 2
4 4 4 3 3 3 3 3 2 2 2 2 2 2 1 0 1 1 1 2 1 1 1 1 1 1 2 2 1 0 2 3 4 4 2 2 2 1
5 4 4 3 3 3 3 3 3 2 2 2 2 1 1 0 0 1 1 2 2 2 2 2 2 2 2 2 1 1 1 3 3 4 4 4 3 2
Wind_Direction
254 253 254 255 254 255 257 256 262 277 275 262 257 251 248 251 253 249 250 255 253 253 252 250 250 250 248 247 247 248 249 247 246 246 247 251 251 251
259 263 261 262 262 257 256 256 251 260 272 264 258 266 263 265 263 254 252 258 253 252 252 251 251 251 249 246 246 245 244 245 245 246 248 250 252 251
264 267 270 265 263 263 263 261 258 257 269 278 266 271 263 263 267 258 256 254 253 253 253 252 251 250 250 247 244 243 242 243 245 246 248 249 252 253
264 267 273 275 266 264 260 260 261 256 261 276 280 272 267 265 262 261 267 266 262 261 256 254 252 249 249 246 242 241 241 239 241 242 245 248 251 255
258 262 270 275 269 267 264 263 264 265 259 270 277 271 272 280 277 274 271 267 272 268 260 258 253 252 248 245 241 239 240 240 240 241 244 249 251 254
256 257 261 267 268 266 266 264 266 266 264 267 273 276 276 279 271 270 277 269 272 276 265 264 257 254 249 244 241 239 238 241 243 245 246 247 251 253
267 263 264 270 275 272 272 270 266 266 268 268 270 274 271 278 268 264 270 274 274 252 260 266 260 256 250 245 243 241 241 242 245 246 245 245 247 250
275 277 275 271 279 279 279 279 271 267 269 265 263 267 265 263 262 261 264 277 276 242 244 269 256 255 256 245 243 244 244 244 245 245 244 243 243 247
271 278 284 282 285 276 277 278 270 268 264 262 262 261 263 261 257 255 256 262 265 252 265 272 268 266 270 257 247 246 246 248 247 244 244 245 245 247
270 270 274 277 277 284 280 275 270 268 265 262 257 258 261 258 248 250 253 268 294 283 234 251 266 272 288 279 260 251 251 250 244 241 243 244 243 242
277 276 276 274 282 289 284 276 277 278 279 275 275 275 275 273 264 250 245 257 281 273 237 219 245 289 295 291 290 281 266 259 252 247 245 241 235 237
283 280 281 284 288 290 280 274 275 280 283 286 285 285 276 269 263 238 225 236 266 258 225 208 227 243 281 289 311 321 308 282 269 255 246 239 231 231
287 286 283 290 292 292 292 281 280 286 277 272 275 275 268 259 259 263 248 230 237 249 223 212 246 247 231 270 316 324 315 298 294 274 265 248 240 229
283 284 285 294 297 299 299 297 299 298 275 266 270 269 270 273 274 273 275 294 275 253 229 221 225 224 234 272 281 316 326 320 312 303 288 282 264 250
289 296 299 301 304 303 302 306 307 294 282 273 266 269 269 260 251 258 45 48 30 7 347 295 217 198 212 235 245 282 308 319 325 324 323 301 267 239
300 305 312 314 309 307 311 313 308 297 288 279 279 277 267 241 228 234 234 93 47 14 16 26 33 154 191 249 217 258 297 299 332 341 343 337 315 285
310 312 312 315 316 317 319 316 318 325 323 313 296 298 289 271 293 352 113 64 102 351 4 18 39 61 68 112 199 229 247 325 315 332 347 346 323 296
322 316 313 312 308 307 310 319 328 326 323 319 309 298 273 247 323 44 81 103 109 99 50 1 46 43 38 29 14 211 353 336 332 343 337 328 314 307
325 312 309 308 308 311 313 317 321 322 323 323 321 317 311 309 125 116 120 110 109 107 72 333 356 93 81 325 343 358 345 319 332 346 334 296 282 284
328 312 309 309 314 319 319 323 325 327 332 332 332 328 321 356 66 127 156 143 131 115 72 20 7 12 211 226 257 321 327 288 277 306 322 319 294 288
324 316 312 313 316 319 321 322 323 322 326 329 323 318 316 9 125 143 155 142 120 128 126 352 326 13 70 78 66 352 338 333 284 264 298 312 306 313
321 318 316 319 320 322 323 322 323 321 321 320 316 316 314 299 149 151 155 145 129 124 103 42 18 39 61 93 96 358 334 345 0 9 336 280 230 233
318 317 319 322 321 320 317 316 317 312 309 307 307 313 322 317 148 147 147 136 127 121 108 89 56 55 60 85 102 51 11 352 352 2 351 0 5 333
Height
1426 1425 1424 1423 1422 1422 1421 1421 1419 1414 1409 1409 1410 1410 1410 1409 1409 1409 1408 1408 1408 1409 1410 1410 1412 1412 1414 1415 1416 1417 1417 1419 1420 1421 1422 1423 1424 1425
1419 1418 1417 1416 1415 1415 1414 1414 1413 1411 1405 1402 1403 1403 1403 1402 1402 1401 1401 1400 1401 1401 1402 1403 1404 1405 1406 1407 1408 1408 1409 1410 1411 1412 1414 1415 1416 1417
1413 1412 1410 1409 1408 1407 1407 1406 1405 1404 1400 1396 1397 1396 1395 1395 1394 1394 1394 1393 1393 1394 1394 1395 1396 1397 1397 1398 1399 1400 1401 1402 1403 1404 1405 1407 1407 1408
1406 1405 1403 1402 1401 1400 1399 1398 1398 1397 1395 1390 1389 1389 1388 1388 1387 1387 1386 1386 1386 1386 1387 1388 1388 1388 1389 1390 1391 1392 1393 1394 1395 1396 1397 1398 1399 1400
1399 1398 1397 1395 1394 1393 1392 1391 1390 1389 1388 1386 1383 1382 1381 1381 1380 1379 1379 1379 1379 1379 1380 1380 1380 1381 1382 1382 1383 1384 1385 1386 1387 1388 1389 1390 1391 1391
1392 1391 1390 1389 1387 1386 1385 1384 1383 1382 1381 1379 1377 1375 1374 1374 1373 1372 1371 1371 1371 1372 1372 1372 1372 1373 1374 1374 1375 1376 1377 1378 1379 1380 1381 1382 1383 1383
1385 1384 1383 1382 1381 1380 1378 1377 1376 1375 1374 1372 1371 1369 1368 1367 1366 1366 1365 1364 1364 1365 1365 1365 1365 1365 1366 1366 1367 1368 1369 1370 1371 1372 1373 1374 1375 1375
1378 1377 1376 1375 1374 1373 1372 1371 1370 1369 1367 1366 1364 1363 1361 1361 1361 1361 1360 1358 1357 1358 1358 1357 1358 1358 1358 1359 1359 1360 1362 1363 1364 1365 1366 1367 1367 1368
1372 1371 1369 1368 1367 1365 1364 1363 1362 1361 1361 1360 1358 1356 1356 1356 1356 1355 1354 1353 1352 1352 1352 1350 1351 1351 1351 1352 1353 1353 1354 1355 1357 1358 1359 1360 1360 1361
1366 1364 1363 1361 1360 1359 1357 1355 1354 1353 1353 1352 1351 1350 1350 1350 1350 1350 1349 1347 1346 1346 1347 1345 1344 1345 1345 1346 1347 1347 1348 1349 1350 1352 1353 1353 1354 1355
1360 1358 1357 1355 1354 1353 1351 1348 1346 1345 1345 1345 1344 1344 1343 1344 1344 1344 1342 1341 1339 1339 1341 1340 1339 1339 1339 1340 1341 1342 1342 1344 1345 1346 1347 1348 1348 1349
1354 1352 1351 1349 1348 1346 1345 1342 1340 1338 1338 1337 1337 1337 1337 1337 1338 1338 1337 1336 1335 1334 1335 1336 1335 1336 1335 1335 1336 1337 1338 1338 1339 1340 1341 1342 1343 1343
1348 1346 1345 1343 1342 1340 1339 1337 1335 1334 1332 1332 1331 1331 1331 1331 1331 1331 1331 1331 1331 1330 1331 1332 1331 1331 1332 1331 1331 1332 1333 1334 1334 1335 1336 1337 1338 1339
1343 1341 1339 1338 1336 1335 1333 1332 1330 1329 1327 1326 1326 1325 1325 1324 1325 1325 1326 1326 1326 1326 1326 1327 1327 1328 1328 1328 1328 1329 1330 1330 1330 1331 1331 1332 1333 1334
1339 1336 1335 1333 1332 1330 1328 1327 1325 1324 1323 1322 1321 1320 1320 1320 1320 1320 1321 1321 1322 1322 1322 1323 1324 1324 1326 1325 1325 1326 1326 1327 1327 1327 1328 1329 1329 1330
1334 1332 1330 1328 1327 1325 1324 1323 1321 1320 1319 1318 1317 1317 1317 1316 1316 1317 1317 1317 1317 1317 1319 1320 1321 1321 1322 1323 1323 1323 1324 1324 1325 1325 1325 1326 1327 1327
1331 1328 1326 1324 1323 1321 1320 1319 1318 1317 1316 1315 1314 1313 1313 1313 1313 1314 1314 1314 1314 1314 1315 1317 1318 1319 1320 1321 1321 1321 1322 1323 1323 1323 1323 1323 1324 1325
1328 1325 1323 1322 1320 1318 1317 1316 1315 1314 1314 1313 1312 1311 1311 1311 1311 1311 1312 1312 1312 1313 1314 1315 1316 1316 1318 1319 1320 1320 1320 1321 1321 1322 1321 1321 1321 1322
1324 1323 1321 1319 1318 1316 1315 1314 1313 1312 1312 1311 1310 1309 1309 1309 1309 1309 1310 1310 1311 1312 1313 1314 1315 1315 1315 1316 1318 1319 1319 1319 1319 1319 1320 1320 1319 1320
1322 1321 1319 1318 1316 1315 1314 1312 1311 1311 1310 1309 1308 1308 1308 1308 1308 1308 1308 1309 1309 1310 1312 1313 1313 1314 1315 1315 1316 1317 1318 1318 1317 1317 1317 1318 1318 1318
1321 1319 1318 1316 1315 1314 1312 1311 1310 1309 1309 1308 1307 1307 1307 1307 1307 1307 1308 1308 1309 1309 1310 1311 1312 1314 1314 1315 1315 1315 1316 1317 1317 1316 1316 1316 1315 1315
1320 1318 1317 1315 1314 1313 1311 1310 1309 1308 1307 1307 1306 1306 1306 1306 1306 1306 1307 1307 1308 1309 1310 1311 1312 1313 1313 1313 1313 1314 1314 1315 1315 1316 1316 1315 1314 1313
1319 1317 1315 1314 1313 1311 1310 1309 1308 1307 1306 1306 1305 1305 1305 1305 1305 1305 1306 1306 1307 1308 1309 1310 1311 1312 1313 1313 1314 1314 1314 1314 1314 1314 1314 1314 1314 1314